Regional Weather Roundup
Issued by NWS

Home | Current Version | Previous Version | Graphics & Text | Print | Product List | Glossary On
Versions: 1 2 3 4 5 6 7 8 9 10 11 12 13 14 15 16 17 18 19 20 21 22 23 24 25 26 27 28 29 30 31 32 33 34 35 36 37 38 39 40 41 42 43 44 45 46 47 48 49 50
000
ASUS43 KLMK 280202
RWRKY
KENTUCKY REGIONAL WEATHER ROUNDUP
NATIONAL WEATHER SERVICE LOUISVILLE KY
900 PM EST FRI FEB 27 2015

NOTE "FAIR" INDICATES FEW OR NO CLOUDS BELOW 12,000 FEET
WITH NO SIGNIFICANT WEATHER AND/OR OBSTRUCTIONS TO VISIBILITY.

KYZ001>023-026-027-061>063-070>075-280300-
WESTERN AND SOUTH CENTRAL KENTUCKY

CITY           SKY/WX    TMP DP  RH WIND       PRES   REMARKS
PADUCAH        CLOUDY    22  10  60 NE8       30.63R WCI  12
HENDERSON      CLOUDY    21   9  58 N7        30.66S WCI  13
OWENSBORO      CLOUDY    22   9  57 N7        30.65S WCI  14
HOPKINSVILLE   CLOUDY    22  10  59 N12       30.61R WCI  11
BOWLING GREEN  CLOUDY    25   7  46 NE8       30.62R WCI  16
GLASGOW        NOT AVBL
$$

KYZ024-025-028>034-038-045-046-053-280300-
NORTH CENTRAL KENTUCKY

CITY           SKY/WX    TMP DP  RH WIND       PRES   REMARKS
LOUISVILLE/SDF CLOUDY    23   3  42 NE8       30.65R WCI  14
LOUISVILLE/LOU MOCLDY    22   2  42 NE5       30.65R WCI  16
FORT KNOX      CLOUDY    22   4  46 NE6       30.60R WCI  14
$$

KYZ035>037-039>044-047>052-055>060-089>105-280300-
NORTHEAST KENTUCKY

CITY           SKY/WX    TMP DP  RH WIND       PRES   REMARKS
LEXINGTON      FAIR      17   6  62 NE3       30.62R
COVINGTON      MOCLDY    14   1  56 N6        30.64R WCI   5
FRANKFORT      CLEAR     17   7  64 CALM      30.62R
$$

KYZ054-064>069-076>088-106>120-280300-
SOUTHEAST KENTUCKY

CITY           SKY/WX    TMP DP  RH WIND       PRES   REMARKS
JACKSON        CLEAR     19   5  54 NE6       30.56R WCI  11
LONDON         CLEAR     21   5  50 N8        30.56R WCI  11
SOMERSET       NOT AVBL
MIDDLESBORO    CLEAR     21  13  72 CALM      30.54R
MONTICELLO     PTCLDY    21   9  60 N8        30.62R WCI  11
$$



USA.gov is the U.S. government's official web portal to all federal, state and local government web resources and services.